Location: *
(50.8667°S, 179.2667°W)
Time: 19:02:55
(UTC+00:00)

Cosmos 2279 Rocket - Pass Details

Date: 02 October 2023
Orbit: 964 x 978 km, 82.9° (Epoch: 10 December)

Event Time Altitude Azimuth Distance (km) Brightness Sun altitude
Exits shadow 13:45:21 68° 235° (SW) 1,066 4.0 -29.9°
Drops below altitude 10° 13:51:21 10° 174° (S) 2,766 7.1 -29.3°
Sets 13:53:55 0° 171° (S) 3,718 7.9 -29.1°
